User: anonymous   Login
Location: Köln
(50.9375°N, 6.9603°E)
Time: 11:09:17
(UTC+02:00)
Language:

STARLINK-73 - Orbit

View from above orbital plane
View from above orbital plane
View from above satellite
View from above satellite

Ground track
Ground track

The orbit data is extracted from the following two-line orbital elements,

1 44284U 19029BB  20271.80085332  .18352570  12342-4  18995-2 0  9995
2 44284  52.9805  52.5060 0006216 304.8100  55.7759 16.36958608 75318
Epoch (UTC): 27 September 2020 19:13:13
Eccentricity: 0.0006216
inclination: 52.9805°
perigee height: 170 km
apogee height: 178 km
right ascension of ascending node: 52.5060°
argument of perigee: 304.8100°
revolutions per day: 16.36958608
mean anomaly at epoch: 55.7759°
orbit number at epoch: 7531

The dashed part of the orbit path shows where the satellite is in the earth's shadow,  

DLR